カタログに戻る

BREEZE-M R/B

運用中HEO
NORAD 42750·ROCKET BODY·🇷🇺 Russia

打ち上げ Jun 8, 2017 から Baikonur Cosmodrome

Loading…

次のパス (今後24時間)

TLE

最新Source: Space-Track

元期: Sep 7, 2026, 03:36 UTC

1 42750U 17032B   26250.15049057  .00000093  00000-0  00000-0 0  9999
2 42750  30.2418 185.0820 6718232 257.0057  25.5808  2.26362832 76530

AllMySatでBREEZE-M R/Bをリアルタイム追跡

Download on the App Store